TimeEDT,TemperatureF,Dew PointF,Humidity,Sea Level PressureIn,VisibilityMPH,Wind Direction,Wind SpeedMPH,Gust SpeedMPH,PrecipitationIn,Events,Conditions,WindDirDegrees,DateUTC
12:15 AM,67.1,59.9,78,29.91,10.0,SW,10.4,16.1,N/A,,Overcast,220,2012-10-15 04:15:00
12:35 AM,66.2,60.4,82,29.90,10.0,SW,8.1,-,N/A,Rain,Light Rain,220,2012-10-15 04:35:00
12:55 AM,65.7,60.6,84,29.89,10.0,WSW,5.8,-,N/A,,Overcast,240,2012-10-15 04:55:00
1:15 AM,66.4,59.9,80,29.89,10.0,WSW,11.5,18.4,N/A,,Mostly Cloudy,240,2012-10-15 05:15:00
1:35 AM,67.5,59.7,76,29.89,10.0,SW,8.1,21.9,N/A,,Overcast,230,2012-10-15 05:35:00
1:55 AM,67.3,59.7,77,29.89,10.0,WSW,9.2,16.1,N/A,,Overcast,240,2012-10-15 05:55:00
2:15 AM,67.1,59.5,77,29.89,10.0,WSW,13.8,20.7,N/A,,Overcast,250,2012-10-15 06:15:00
2:35 AM,66.2,58.5,76,29.91,10.0,West,13.8,26.5,N/A,Rain,Light Rain,280,2012-10-15 06:35:00
2:55 AM,64.0,57.4,79,29.91,10.0,WNW,6.9,-,N/A,,Overcast,290,2012-10-15 06:55:00
3:15 AM,63.5,56.7,78,29.90,10.0,West,8.1,16.1,N/A,,Overcast,270,2012-10-15 07:15:00
3:35 AM,62.8,56.5,80,29.89,10.0,West,4.6,-,N/A,,Overcast,270,2012-10-15 07:35:00
3:55 AM,62.1,56.3,81,29.89,10.0,WSW,5.8,-,N/A,,Mostly Cloudy,250,2012-10-15 07:55:00
4:15 AM,61.7,56.1,82,29.89,10.0,Calm,Calm,-,N/A,,Mostly Cloudy,0,2012-10-15 08:15:00
4:35 AM,61.7,56.1,82,29.90,10.0,West,9.2,-,N/A,,Scattered Clouds,260,2012-10-15 08:35:00
4:55 AM,61.3,55.6,81,29.90,10.0,WSW,9.2,-,N/A,,Scattered Clouds,250,2012-10-15 08:55:00
5:15 AM,60.8,55.4,82,29.90,10.0,West,8.1,-,N/A,,Clear,270,2012-10-15 09:15:00
5:55 AM,60.8,54.7,80,29.91,10.0,West,5.8,16.1,N/A,,Mostly Cloudy,270,2012-10-15 09:55:00
6:15 AM,61.0,54.9,80,29.91,10.0,West,5.8,17.3,N/A,,Overcast,260,2012-10-15 10:15:00
6:35 AM,60.1,54.9,83,29.91,10.0,West,4.6,-,N/A,,Overcast,260,2012-10-15 10:35:00
6:55 AM,59.9,55.0,84,29.91,10.0,West,9.2,-,N/A,,Overcast,260,2012-10-15 10:55:00
7:15 AM,59.5,54.7,84,29.91,10.0,West,6.9,-,N/A,,Overcast,270,2012-10-15 11:15:00
7:35 AM,59.2,54.1,83,29.91,10.0,West,5.8,-,N/A,,Overcast,270,2012-10-15 11:35:00
8:15 AM,58.1,51.3,78,29.92,10.0,WNW,10.4,-,N/A,,Overcast,290,2012-10-15 12:15:00
8:35 AM,57.6,49.3,74,29.93,10.0,West,5.8,-,N/A,,Overcast,270,2012-10-15 12:35:00
8:55 AM,57.2,48.7,73,29.93,10.0,West,3.5,-,N/A,,Overcast,260,2012-10-15 12:55:00
9:15 AM,57.4,48.9,73,29.94,10.0,West,4.6,-,N/A,,Overcast,280,2012-10-15 13:15:00
9:35 AM,57.2,48.7,73,29.95,10.0,West,12.7,19.6,N/A,,Overcast,260,2012-10-15 13:35:00
9:55 AM,56.3,47.3,72,29.96,10.0,West,9.2,19.6,N/A,,Overcast,280,2012-10-15 13:55:00
10:15 AM,56.3,47.7,73,29.96,10.0,West,5.8,9.2,N/A,,Overcast,280,2012-10-15 14:15:00
10:35 AM,57.2,47.8,71,29.96,10.0,West,6.9,-,N/A,,Overcast,280,2012-10-15 14:35:00
10:55 AM,56.8,47.7,71,29.96,10.0,WNW,6.9,-,N/A,,Overcast,290,2012-10-15 14:55:00
11:15 AM,58.1,47.8,69,29.96,10.0,West,6.9,-,N/A,,Overcast,270,2012-10-15 15:15:00
11:35 AM,57.6,46.0,65,29.95,10.0,West,15.0,23.0,N/A,,Mostly Cloudy,270,2012-10-15 15:35:00
11:55 AM,60.3,46.9,61,29.95,10.0,WSW,13.8,18.4,N/A,,Mostly Cloudy,250,2012-10-15 15:55:00
12:15 PM,59.2,44.1,57,29.95,10.0,West,9.2,20.7,N/A,,Mostly Cloudy,280,2012-10-15 16:15:00
12:35 PM,60.8,43.5,53,29.95,10.0,West,9.2,18.4,N/A,,Scattered Clouds,280,2012-10-15 16:35:00
12:55 PM,60.1,43.0,53,29.95,10.0,WNW,11.5,18.4,N/A,,Scattered Clouds,290,2012-10-15 16:55:00
1:15 PM,61.7,42.6,50,29.95,10.0,West,11.5,19.6,N/A,,Scattered Clouds,270,2012-10-15 17:15:00
1:35 PM,61.3,42.1,49,29.94,10.0,West,8.1,17.3,N/A,,Mostly Cloudy,280,2012-10-15 17:35:00
1:55 PM,61.0,41.0,48,29.94,10.0,WNW,12.7,20.7,N/A,,Scattered Clouds,290,2012-10-15 17:55:00
2:15 PM,63.3,41.9,46,29.93,10.0,West,6.9,17.3,N/A,,Scattered Clouds,270,2012-10-15 18:15:00
2:35 PM,64.9,42.3,44,29.93,10.0,West,12.7,19.6,N/A,,Mostly Cloudy,260,2012-10-15 18:35:00
2:55 PM,63.1,41.0,44,29.92,10.0,WNW,9.2,17.3,N/A,,Mostly Cloudy,300,2012-10-15 18:55:00
3:15 PM,63.0,41.0,45,29.93,10.0,West,9.2,20.7,N/A,,Mostly Cloudy,280,2012-10-15 19:15:00
3:35 PM,63.0,40.8,44,29.93,10.0,WNW,12.7,20.7,N/A,,Scattered Clouds,300,2012-10-15 19:35:00
3:55 PM,62.6,41.7,46,29.93,10.0,NW,8.1,18.4,N/A,,Scattered Clouds,310,2012-10-15 19:55:00
4:15 PM,62.8,42.4,47,29.94,10.0,WNW,10.4,-,N/A,,Mostly Cloudy,300,2012-10-15 20:15:00
4:35 PM,60.3,41.5,50,29.95,10.0,NNW,10.4,19.6,N/A,,Overcast,330,2012-10-15 20:35:00
4:55 PM,60.6,42.1,50,29.96,10.0,NNW,6.9,16.1,N/A,,Mostly Cloudy,330,2012-10-15 20:55:00
5:15 PM,59.5,41.9,52,29.97,10.0,NW,10.4,16.1,N/A,,Mostly Cloudy,310,2012-10-15 21:15:00
5:35 PM,58.6,42.1,54,29.97,10.0,NNW,11.5,-,N/A,,Mostly Cloudy,330,2012-10-15 21:35:00
5:55 PM,58.6,41.9,54,29.97,10.0,NNW,5.8,-,N/A,,Scattered Clouds,340,2012-10-15 21:55:00
6:15 PM,58.3,41.7,54,29.98,10.0,NNW,6.9,-,N/A,,Scattered Clouds,340,2012-10-15 22:15:00
6:35 PM,57.0,41.0,55,29.98,10.0,NW,6.9,-,N/A,,Clear,320,2012-10-15 22:35:00
6:55 PM,56.1,41.0,57,29.98,10.0,NNW,3.5,-,N/A,,Clear,330,2012-10-15 22:55:00
7:15 PM,55.4,41.4,59,29.98,10.0,NW,4.6,-,N/A,,Scattered Clouds,320,2012-10-15 23:15:00
7:35 PM,55.8,41.4,58,29.99,10.0,NNW,3.5,-,N/A,,Clear,330,2012-10-15 23:35:00
7:55 PM,54.7,41.4,61,30.00,10.0,NW,3.5,-,N/A,,Clear,320,2012-10-15 23:55:00
8:15 PM,54.0,41.4,62,30.01,10.0,Calm,Calm,-,N/A,,Clear,0,2012-10-16 00:15:00
8:35 PM,53.6,41.5,64,30.01,10.0,Calm,Calm,-,N/A,,Clear,0,2012-10-16 00:35:00
8:55 PM,52.7,41.5,66,30.01,10.0,Calm,Calm,-,N/A,,Clear,0,2012-10-16 00:55:00
9:15 PM,50.9,41.5,70,30.01,10.0,Calm,Calm,-,N/A,,Clear,0,2012-10-16 01:15:00
9:35 PM,51.8,41.9,69,30.01,10.0,Calm,Calm,-,N/A,,Clear,0,2012-10-16 01:35:00
9:55 PM,50.0,42.1,74,30.01,10.0,Calm,Calm,-,N/A,,Clear,0,2012-10-16 01:55:00
10:15 PM,48.7,42.4,79,30.01,10.0,Calm,Calm,-,N/A,,Clear,0,2012-10-16 02:15:00
10:35 PM,49.1,42.8,79,30.01,10.0,Calm,Calm,-,N/A,,Clear,0,2012-10-16 02:35:00
10:55 PM,49.6,43.0,78,30.01,10.0,SSW,3.5,-,N/A,,Clear,210,2012-10-16 02:55:00
11:15 PM,48.6,42.1,78,30.01,10.0,Calm,Calm,-,N/A,,Clear,0,2012-10-16 03:15:00
11:35 PM,48.4,42.1,79,30.01,10.0,SW,3.5,-,N/A,,Clear,220,2012-10-16 03:35:00
11:55 PM,47.7,42.4,82,30.00,10.0,Calm,Calm,-,N/A,,Clear,0,2012-10-16 03:55:00